EDT,Max TemperatureF,Mean TemperatureF,Min TemperatureF,Max Dew PointF,MeanDew PointF,Min DewpointF,Max Humidity, Mean Humidity, Min Humidity, Max Sea Level PressureIn, Mean Sea Level PressureIn, Min Sea Level PressureIn, Max VisibilityMiles, Mean VisibilityMiles, Min VisibilityMiles, Max Wind SpeedMPH, Mean Wind SpeedMPH, Max Gust SpeedMPH,PrecipitationIn, CloudCover, Events, WindDirDegrees
2013-7-1,68,65,61,63,60,59,93,85,76,30.05,29.97,29.89,10,7,3,12,6,15,0.38,7,Rain,67
2013-7-2,81,71,61,66,63,59,93,74,54,30.15,30.07,29.99,10,6,0,17,5,25,0.41,6,Fog-Rain,136
2013-7-3,82,74,65,66,65,63,93,72,51,30.24,30.17,30.10,10,8,1,13,6,17,0.00,4,,165
2013-7-4,81,74,67,67,65,62,93,76,58,30.27,30.20,30.16,10,9,2,10,4,15,0.03,6,Rain,204
2013-7-5,82,74,65,66,64,63,93,76,58,30.22,30.17,30.12,10,8,2,14,5,21,T,3,,212
2013-7-6,83,75,66,68,65,63,93,74,55,30.24,30.17,30.08,10,9,6,12,3,18,T,5,,239
2013-7-7,79,72,65,66,64,61,90,75,60,30.14,30.09,29.99,10,9,2,12,4,16,0.11,5,Rain,236
2013-7-8,80,72,64,64,63,61,93,75,56,30.16,30.09,30.05,10,6,3,12,4,18,T,6,Rain,248
2013-7-9,76,71,65,69,66,63,93,86,79,30.13,30.06,29.97,7,4,2,12,4,16,0.14,6,Rain,187
2013-7-10,79,70,61,69,65,59,93,81,69,30.02,29.92,29.83,10,8,3,17,7,28,0.27,7,Rain,233
2013-7-11,73,64,55,61,55,50,93,70,46,30.04,29.97,29.89,10,10,3,15,6,19,T,4,Rain,317
2013-7-12,69,61,53,57,55,51,93,78,63,30.18,30.12,30.03,10,10,7,12,5,15,0.00,0,,40
2013-7-13,74,67,59,65,60,54,93,81,68,30.33,30.25,30.17,10,8,2,12,4,16,0.00,5,,103
2013-7-14,86,72,58,67,60,57,97,73,48,30.38,30.33,30.29,10,4,0,12,3,17,T,3,Fog,220
2013-7-15,88,75,61,68,65,60,93,74,55,30.37,30.32,30.27,10,9,2,13,3,16,0.00,3,,326
2013-7-16,87,74,60,67,63,59,97,74,51,30.37,30.32,30.26,10,7,1,12,3,15,0.00,1,,348
2013-7-17,88,75,62,71,67,60,97,75,53,30.34,30.25,30.18,10,5,0,12,4,15,0.02,1,Fog,274
2013-7-18,88,77,65,72,68,63,93,72,50,30.24,30.16,30.05,10,6,0,15,4,21,0.06,1,Fog-Rain,260
2013-7-19,87,75,63,70,67,62,93,72,50,30.05,29.96,29.84,10,7,2,15,7,23,0.00,3,,243
2013-7-20,77,69,61,65,64,61,93,77,60,29.97,29.87,29.78,10,7,1,17,7,27,0.17,5,Rain,261
2013-7-21,82,70,57,63,59,55,93,68,42,30.03,29.98,29.93,10,4,0,9,2,14,0.00,5,Fog,23
2013-7-22,80,69,58,65,61,56,93,76,58,29.99,29.91,29.78,10,6,1,18,4,27,0.28,4,Rain,118
2013-7-23,80,72,63,64,62,58,93,71,48,29.83,29.75,29.68,10,8,2,18,6,31,0.11,6,Rain,291
2013-7-24,67,57,47,60,51,46,86,67,48,30.06,29.88,29.73,10,10,3,16,8,21,0.01,6,Rain,336
2013-7-25,71,55,39,49,44,37,96,68,40,30.14,30.09,30.04,10,8,0,16,4,22,0.00,0,Fog,7
2013-7-26,77,61,44,55,49,42,93,66,38,30.14,30.09,30.04,10,10,10,12,2,14,0.00,0,,203
2013-7-27,70,60,50,63,59,48,96,81,66,30.04,29.95,29.86,10,7,2,10,5,16,0.48,6,Rain,150
2013-7-28,72,60,48,62,57,48,90,70,49,30.03,29.92,29.86,10,7,2,14,5,20,0.15,6,Rain,236
2013-7-29,69,58,46,51,48,45,93,69,45,30.21,30.11,30.03,10,9,2,17,6,23,T,4,,237
2013-7-30,73,61,48,54,51,46,93,71,49,30.26,30.22,30.18,10,9,2,13,3,16,0.00,4,,296
2013-7-31,75,61,47,56,52,45,93,70,46,30.20,30.11,29.98,10,10,5,10,3,14,0.00,1,,169